星链-2617 (STARLINK-2617 )

导读

STARLINK-2617是美国太空探索技术公司SpaceX星链星座的卫星,于2021年5月26日发射升空,属于星链互联网卫星组网的组成部分。这类卫星通过低轨星座部署,可实现全球覆盖的高速互联网接入服务,为偏远地区、海上、航空等场景提供网络连接支持,推进了低轨卫星互联网的建设进程。

Basic Information
目录编号:
48689
目录名称:
STARLINK-2617
国际标识:
2021-044BD
轨道中心:
EARTH
卫星名称:
星链-2617
卫星全名:
星链-2617 (STARLINK-2617 )
卫星状态:
已陨落 最后检测时间 2025-01-12
发射日期:
2021-05-26 UTC
国别 :
美国 (US)
星等 :
--
Orbit Information
数据来源 国际轨道数据
星历时间: 2025-01-12T13:57:20+0800
轨道信息已过期522天
半长轴: 6557.967km
偏心率: 0.0008336
轨道倾角: 53.033°
近地点辐角 322.323°
升交点赤经 142.422°
平近点角 133.394°
近地点: 174.365km
远地点: 185.299km
周期: 88.087分钟
每日圈数: 16.347409
Detailed Information
固有亮度:
5
最大亮度:
2.5
卫星平台:
Starlink v1.5
覆盖范围:
全球
运营商:
太空探索技术公司
运营商所在国:
美国
制造商(研发单位):
太空探索技术公司
制造商所在国:
美国
使用方式:
暂无
Satellite Introduction
星链(Starlink)计划是由太空探索技术公司(SpaceX)提出的一个巨型低轨卫星互联网星座项目,计划在2019年至2024年间在太空搭建由约1.2万颗卫星组成的“星链”网络,其中1584颗将部署在地球上空550千米处的近地轨道,并从2020年开始工作。该卫星仍在工作。